Lapse_Rate
6.2 6.5 6.5 6.5 6.5 6.5 6.5 6.5 6.5 6.5 6.5 6.5 6.5 6.5 6.5 6.3 5.5 5.4 4.8 5.0 4.0 3.8 3.4 3.7 3.2 2.7 2.9 1.6 1.1 1.0 1.5 1.5 1.6 1.7 3.0 3.6 3.2 3.8 3.7 4.3 5.1 4.5 4.7 5.1
6.5 6.5 6.5 6.5 6.5 6.5 6.5 6.5 6.5 6.5 6.5 6.5 6.5 6.5 6.5 6.5 6.3 6.0 5.8 6.3 6.0 5.4 4.3 6.2 4.6 4.6 3.2 2.6 2.1 1.7 2.0 2.1 2.3 2.4 2.4 3.2 3.3 3.3 3.8 4.1 4.2 4.7 4.2 4.5
6.5 6.5 6.5 6.5 6.5 6.5 6.5 6.5 6.5 6.5 6.5 6.5 6.5 6.5 6.5 6.5 6.2 5.6 6.1 6.9 6.9 6.3 6.4 6.3 6.6 5.5 3.2 1.3 1.2 2.9 3.2 3.3 3.1 3.2 3.5 4.0 4.1 3.8 4.0 4.0 4.2 4.0 4.5 3.8
6.5 6.5 6.5 6.5 6.5 6.5 6.5 6.5 6.5 6.5 6.5 6.5 6.5 6.5 6.5 6.5 6.5 6.5 6.2 6.8 6.3 6.5 6.5 6.4 6.6 5.3 4.8 2.6 2.7 3.6 3.9 2.5 2.5 2.7 4.9 5.3 5.2 5.6 5.4 4.3 4.0 4.7 4.9 4.3
6.5 6.5 6.5 6.5 6.5 6.5 6.5 6.5 6.5 6.5 6.5 6.5 6.5 6.5 6.5 6.5 6.5 6.5 6.4 7.0 6.8 6.2 6.1 5.8 5.4 5.1 4.5 3.9 3.5 4.1 4.0 3.8 3.4 3.0 4.6 5.2 5.4 5.7 5.2 4.0 4.8 5.3 5.5 4.9
6.5 6.2 6.5 6.5 6.5 6.5 6.5 6.5 6.5 6.5 6.5 6.5 6.5 6.5 6.5 6.5 6.5 6.5 6.5 6.9 6.5 6.7 6.1 5.6 4.9 4.6 4.3 3.7 3.4 3.2 3.3 2.8 2.5 2.7 2.9 3.5 4.4 4.1 4.9 4.9 4.8 4.9 4.7 4.3
6.5 6.5 6.5 6.7 6.5 6.5 6.5 6.5 6.5 6.5 6.5 6.5 6.5 6.5 6.5 6.5 6.5 6.5 6.5 6.8 6.9 6.4 6.2 5.8 5.2 4.6 4.3 3.4 3.1 3.7 2.8 2.5 2.4 2.5 2.2 2.2 3.0 2.7 2.9 3.4 4.3 4.1 4.8 4.7
6.5 6.5 6.5 6.5 6.5 6.5 6.5 6.5 6.5 6.5 6.5 6.5 6.5 6.5 6.5 6.5 6.7 6.9 7.0 7.0 6.9 6.3 6.3 6.3 6.0 5.1 4.1 4.3 4.0 3.8 3.4 3.2 2.7 2.8 2.3 1.9 2.1 2.4 2.6 2.4 2.3 2.1 2.6 2.7
6.5 6.5 6.5 6.5 6.5 6.5 6.5 6.5 6.5 6.5 6.5 6.5 6.5 6.5 6.5 6.5 6.5 6.7 6.8 7.0 6.9 6.6 6.4 6.5 6.4 5.5 5.0 5.1 4.4 3.8 3.1 3.3 3.9 3.6 2.6 1.8 1.2 1.4 1.4 1.7 1.7 1.2 1.6 2.6
6.5 6.5 6.5 6.5 6.5 6.5 6.5 6.5 6.5 6.5 6.5 6.5 6.5 6.5 6.5 6.5 6.5 6.5 6.6 7.0 6.9 6.8 6.5 6.6 5.7 4.9 4.6 4.4 4.2 3.5 3.8 3.5 2.9 2.1 1.5 1.3 1.0 1.5 1.2 1.4 0.9 1.5 1.5 1.2
6.5 6.5 6.5 6.5 6.5 6.5 6.5 6.5 6.5 6.5 6.5 6.5 6.5 6.5 6.5 6.5 6.5 6.5 6.7 6.9 7.0 6.8 6.3 6.0 5.3 4.7 4.6 4.2 3.3 2.7 2.4 2.2 1.9 2.0 1.6 1.3 1.1 1.1 0.9 0.8 0.8 0.9 1.1 0.9
6.5 6.5 6.5 6.5 6.5 6.5 6.5 6.5 6.5 6.5 6.5 6.5 6.5 6.5 6.5 6.5 6.5 6.7 6.8 6.9 6.6 6.3 5.9 5.3 5.2 5.0 3.7 3.1 2.3 1.6 1.5 1.2 1.2 1.4 0.8 0.7 0.9 0.8 0.6 0.5 0.9 1.0 0.8 0.8
6.5 6.5 6.5 6.5 6.5 6.5 6.5 6.5 6.5 6.5 6.5 6.5 6.5 6.5 6.5 6.6 6.6 6.9 6.8 6.7 6.3 6.2 6.3 5.3 4.4 3.2 2.6 2.2 1.6 1.2 0.6 0.6 1.0 1.0 0.7 0.3 0.0 -0.1 -0.3 -0.3 -0.3 0.0 0.3 0.6
6.2 6.5 6.5 6.5 6.5 6.5 6.5 6.5 6.5 6.5 6.5 6.5 6.5 6.5 6.5 6.5 6.5 6.6 6.4 5.8 5.1 5.0 5.2 4.3 3.6 2.9 2.2 1.9 1.2 0.7 0.6 0.1 0.1 0.1 -0.4 -0.7 -1.1 -1.1 -1.0 -0.8 -0.6 -0.5 -0.7 -0.5
6.5 6.5 6.5 6.5 6.5 6.5 6.5 6.5 6.5 6.5 6.5 6.5 6.5 6.5 6.5 6.5 6.5 5.5 4.6 5.1 5.1 4.7 4.8 4.3 3.7 2.8 2.3 2.1 1.5 1.3 0.9 0.6 0.6 0.7 0.3 0.1 0.4 0.3 0.2 0.1 -0.0 0.1 0.0 -0.0
6.5 6.5 6.5 6.5 6.5 6.5 6.5 6.5 6.5 6.5 6.5 6.5 6.5 6.5 6.5 5.7 5.1 5.1 4.1 4.2 4.5 4.4 4.5 4.7 4.5 3.6 2.1 1.5 1.2 1.0 0.5 0.2 -0.3 -0.1 0.3 0.6 0.6 0.4 0.1 0.2 0.2 0.3 0.2 0.4
6.5 6.5 6.5 6.5 6.5 6.5 6.5 6.5 6.5 6.5 6.5 6.5 6.5 6.5 6.5 6.5 6.2 5.0 3.7 3.4 3.6 3.6 4.0 4.3 4.4 2.9 2.4 2.1 1.8 1.2 0.4 0.2 0.5 0.9 1.2 1.5 1.3 1.4 1.1 1.1 1.0 0.8 0.7 0.5
6.5 6.5 6.5 6.5 6.5 6.5 6.5 6.5 6.5 6.5 6.5 6.5 6.5 6.5 6.2 6.1 4.7 4.0 2.9 2.9 2.5 3.2 3.8 3.8 2.8 2.5 2.0 1.2 1.2 0.9 1.1 0.8 0.8 1.2 1.4 1.5 1.5 1.5 1.5 1.4 1.3 1.1 1.4 1.3
6.3 6.5 6.5 6.5 6.5 6.5 6.5 6.5 6.5 6.5 6.5 6.5 6.5 6.5 6.2 5.1 5.3 4.8 3.2 2.9 3.2 2.6 2.6 2.4 2.1 2.0 1.4 1.2 1.3 1.8 2.0 1.5 1.6 2.0 2.0 2.0 2.1 2.1 2.0 1.7 1.4 1.7 1.7 1.4
6.5 6.5 6.5 6.5 6.5 6.5 6.5 6.5 6.1 6.4 6.5 6.4 6.0 6.4 6.0 5.1 6.5 6.5 3.0 2.6 2.3 2.3 2.3 2.5 2.6 2.2 2.1 1.9 1.3 1.8 1.6 1.1 1.2 0.9 0.8 1.2 1.8 2.0 1.7 1.6 1.3 1.7 1.6 2.0
6.5 6.5 6.5 6.5 6.5 6.5 6.5 6.2 5.6 6.5 6.5 5.4 4.7 4.4 4.4 6.5 4.6 3.3 2.1 3.3 2.9 3.1 3.0 2.6 2.2 1.7 1.3 0.6 0.6 1.0 0.8 1.6 1.6 1.8 2.1 2.3 2.2 2.2 2.5 2.5 2.3 2.3 2.0 2.0
6.5 6.5 6.5 6.5 6.5 6.5 5.1 6.4 6.5 5.8 4.3 4.5 4.0 3.6 3.3 3.2 2.8 2.2 2.7 2.8 3.0 3.8 4.0 2.4 1.7 1.6 1.0 0.7 0.9 1.4 1.8 1.7 1.5 1.6 1.8 1.9 1.7 2.2 3.2 2.0 1.7 1.8 2.0 2.2
6.5 6.5 6.5 6.5 6.5 5.6 3.3 4.5 3.0 2.2 3.2 3.8 3.8 3.5 3.0 2.7 2.1 1.7 2.2 2.5 2.9 3.1 1.9 1.3 1.3 1.3 1.2 1.0 1.1 1.5 1.8 1.3 1.4 1.3 1.8 1.9 1.9 2.3 2.7 2.3 2.3 2.6 2.4 2.5
6.5 5.4 6.5 6.5 6.5 6.0 2.8 1.8 2.0 1.7 2.4 3.1 2.9 2.3 1.5 2.4 1.6 1.8 1.9 1.8 2.0 2.0 2.1 1.6 1.4 1.4 1.3 1.1 1.3 1.4 1.5 1.9 1.9 1.6 1.5 1.8 1.9 3.4 2.7 3.2 3.9 3.3 3.2 3.1
5.9 6.0 6.5 6.5 6.2 4.0 2.2 1.3 1.6 1.3 2.0 2.4 2.1 1.7 1.9 2.0 1.7 1.8 1.8 2.0 2.0 2.3 1.9 1.5 1.5 1.5 1.4 1.4 1.4 1.7 2.4 2.2 2.0 1.8 2.5 2.9 3.7 2.7 3.4 3.6 3.6 4.4 3.4 3.6
5.2 6.5 6.5 6.5 4.6 5.0 3.9 2.2 0.6 1.5 1.0 1.0 1.1 1.3 1.7 2.0 2.0 2.1 2.0 1.9 2.1 2.1 1.8 2.0 2.1 1.8 1.7 1.6 1.7 1.9 2.3 2.1 2.1 3.0 4.4 4.3 5.0 4.1 4.7 4.6 4.4 5.6 6.7 7.1
Wind_Speed
3 4 2 5 4 4 4 1 5 10 14 11 12 18 20 15 8 8 11 12 11 12 13 11 13 10 7 4 5 5 5 3 3 2 5 7 6 7 6 8 16 17 15 17
5 1 3 3 3 2 1 8 11 12 8 4 10 19 17 9 5 3 6 9 10 11 8 6 4 5 7 4 2 2 1 2 4 3 3 3 3 4 4 6 9 15 12 7
3 1 4 2 1 1 4 8 8 9 10 10 9 7 5 3 3 6 6 9 9 8 9 7 5 2 6 6 4 5 2 2 5 6 3 4 4 4 5 7 6 8 9 6
3 2 2 1 2 4 8 7 12 14 8 3 3 5 5 4 3 6 6 10 10 10 7 7 6 7 8 7 6 6 6 6 5 6 7 10 7 6 8 10 6 6 9 9
4 1 1 3 5 9 6 2 8 12 13 6 4 3 5 4 5 9 6 9 8 9 9 9 10 9 9 10 7 5 6 7 9 8 3 3 1 5 10 8 7 8 10 14
5 2 5 4 6 9 6 9 12 12 4 3 4 4 4 2 5 7 4 8 10 10 9 10 10 10 9 9 8 9 11 9 10 10 10 7 4 4 8 6 2 5 3 5
2 4 2 4 4 4 6 2 3 4 1 4 3 4 5 5 7 8 5 6 8 9 9 10 11 10 10 13 12 9 10 9 10 9 10 11 8 10 9 9 6 9 6 3
2 6 6 6 5 2 4 2 2 4 2 3 4 3 2 5 5 5 5 6 7 9 9 10 10 8 12 11 10 9 8 10 10 10 8 9 11 7 7 8 7 7 8 8
2 4 2 5 2 1 2 3 2 4 4 2 2 3 2 2 4 6 6 6 7 8 9 10 9 10 9 8 9 10 11 10 9 8 9 10 11 11 9 10 9 7 8 7
2 4 3 1 3 5 3 3 2 2 3 3 2 2 4 6 3 4 4 5 7 8 10 8 9 10 9 9 8 9 8 8 9 10 10 10 10 9 8 9 10 9 8 9
1 2 4 1 5 3 4 2 3 2 2 2 3 2 6 5 2 3 4 3 8 8 8 8 8 7 6 6 7 7 8 9 9 9 9 9 9 9 8 9 9 9 9 10
4 2 4 6 1 2 1 1 2 2 3 1 1 3 6 4 1 5 2 5 5 4 3 3 3 4 5 5 6 6 7 8 8 7 8 8 8 8 9 9 9 9 9 9
3 1 4 6 4 4 3 3 3 2 2 1 1 3 2 3 4 5 4 3 3 3 2 1 4 5 5 5 5 5 6 6 5 6 6 8 8 9 9 8 8 8 8 8
2 1 4 4 5 1 5 5 4 2 2 2 3 2 1 2 3 4 4 4 5 4 3 1 2 3 4 5 5 5 5 4 5 5 5 6 6 6 6 6 7 7 7 7
2 3 2 6 7 3 4 4 5 2 2 3 4 4 5 6 7 6 5 3 3 5 4 1 0 1 2 3 4 4 4 5 4 5 6 6 5 5 5 6 6 7 7 7
0 2 1 4 3 3 5 6 3 1 1 2 3 4 3 3 3 4 7 6 6 5 5 3 1 3 4 4 5 5 5 5 5 5 5 4 5 6 6 6 6 6 6 6
0 1 2 5 4 6 6 5 3 2 4 4 4 3 3 4 7 7 7 7 7 6 6 5 2 0 1 2 1 2 3 3 3 3 3 3 3 4 5 4 5 6 5 5
1 2 2 4 4 3 4 1 2 4 6 5 3 4 6 5 4 5 6 6 7 6 5 4 2 1 1 1 1 3 4 4 5 5 5 5 5 5 5 5 5 5 3 4
3 3 1 1 2 7 1 3 4 4 5 7 5 3 2 1 2 4 4 4 5 6 4 3 2 2 1 3 3 3 5 5 5 5 5 5 5 5 5 5 6 5 3 4
3 3 3 1 0 4 3 2 2 2 5 4 5 5 6 5 2 4 3 4 5 5 4 5 2 2 1 2 2 2 4 4 5 5 6 6 5 5 6 6 6 3 3 4
2 2 3 3 3 8 4 4 3 2 5 4 5 6 7 5 4 2 5 4 4 4 5 4 3 2 0 2 3 6 6 6 6 6 6 6 6 6 6 6 4 4 5 5
3 3 4 2 2 7 6 3 6 5 1 3 4 4 6 4 4 5 6 6 6 5 3 3 3 3 4 5 5 4 5 5 5 6 6 6 6 5 5 6 5 6 5 6
3 6 4 8 6 4 7 6 4 3 4 4 4 5 5 6 6 6 5 5 4 3 2 2 3 3 4 4 3 5 6 6 6 6 6 6 6 5 5 4 6 4 5 4
4 3 4 1 4 8 10 6 5 6 6 4 3 5 6 5 6 6 5 4 3 2 1 1 2 3 4 4 4 5 6 6 6 7 7 6 6 9 6 5 4 4 4 5
4 6 4 7 9 7 10 9 6 7 6 5 3 5 6 6 5 5 4 4 3 3 1 1 2 3 5 4 5 5 5 4 6 6 6 6 5 6 6 6 5 6 5 6
6 7 5 6 6 3 6 5 6 9 9 9 7 4 3 5 7 5 5 3 3 3 1 1 3 4 5 5 5 6 6 6 6 7 6 6 6 5 6 6 8 12 17 20
Wind_Direction
17 66 192 221 190 132 136 247 288 276 279 293 261 275 284 289 268 276 277 284 286 277 269 257 244 240 246 241 199 171 177 185 168 164 233 247 244 255 251 244 250 243 238 239
34 257 227 178 157 203 268 309 295 287 277 275 290 296 299 312 310 307 318 337 324 323 311 328 278 198 200 179 133 119 161 227 224 197 205 206 212 231 241 257 245 235 229 245
150 178 74 134 116 23 263 257 269 267 294 265 281 295 327 323 355 357 8 4 5 6 25 37 20 50 95 62 21 59 25 277 242 225 225 236 255 264 259 260 250 235 226 199
233 276 246 274 258 202 280 229 254 273 288 295 55 291 305 336 322 2 5 6 5 2 12 31 26 31 27 38 28 30 40 19 356 289 250 249 256 270 274 264 240 243 218 201
269 314 68 296 239 194 254 272 267 280 285 286 194 235 274 358 328 349 352 7 18 19 19 23 27 28 27 30 25 32 37 26 7 1 278 222 357 304 288 260 229 253 233 212
241 196 191 228 256 226 258 286 269 257 253 256 200 192 286 337 313 317 14 22 25 16 23 33 37 37 32 30 27 23 35 11 25 8 24 45 46 351 17 5 27 340 196 132
271 213 205 187 283 211 223 283 320 347 287 234 172 185 247 324 314 311 32 40 39 30 26 28 29 30 32 29 18 24 25 21 25 16 27 28 9 38 38 12 4 26 7 138
6 336 193 176 219 290 194 206 219 262 270 285 178 237 267 313 324 45 63 45 42 44 30 30 25 36 36 25 18 19 25 24 19 19 26 40 32 31 35 20 19 35 17 19
311 280 125 195 162 216 79 219 197 265 228 259 248 275 223 261 29 34 32 37 38 41 40 26 29 47 43 25 24 19 28 22 19 20 33 28 36 29 27 25 27 24 19 16
336 289 215 139 117 236 214 299 240 242 293 284 258 291 308 332 334 3 14 23 37 46 42 33 29 29 27 25 17 20 26 28 20 28 30 30 31 29 23 29 29 25 17 14
339 281 294 181 213 170 187 262 255 280 247 311 318 355 1 352 353 32 39 40 41 40 37 33 26 17 20 17 19 20 21 22 26 20 28 28 26 25 26 28 25 19 20 18
209 193 272 233 37 359 130 173 227 150 292 249 217 291 3 68 31 79 56 48 44 53 41 358 331 16 25 18 19 20 18 25 19 13 31 33 25 28 32 28 23 21 21 18
178 248 335 353 12 12 39 309 238 196 48 262 125 296 39 83 92 122 162 201 214 257 283 13 18 15 14 12 20 27 23 25 24 28 30 26 22 23 24 23 21 22 19 16
124 161 179 197 233 246 307 318 328 163 121 196 216 278 267 103 140 183 213 217 228 229 219 185 28 9 9 17 17 21 26 26 28 33 32 37 26 21 17 12 14 14 13 21
140 252 185 247 244 246 249 264 330 98 234 161 200 193 219 206 202 208 212 207 217 238 250 259 26 346 20 30 29 25 24 22 13 35 34 17 7 18 17 14 9 3 5 3
215 263 207 281 231 278 273 274 294 247 162 82 163 247 191 197 159 193 210 208 216 230 237 218 161 40 9 4 16 11 4 0 20 31 18 0 11 15 12 9 3 6 1 357
281 115 48 272 350 326 317 220 204 246 198 176 197 235 163 190 208 216 215 208 220 223 216 208 192 176 353 341 322 347 340 356 11 5 350 344 354 10 4 352 356 353 345 341
163 92 80 266 356 5 251 168 185 228 253 223 255 232 207 215 207 227 211 205 224 220 203 187 191 234 280 322 350 324 328 353 359 354 350 351 349 346 344 346 342 327 306 324
178 136 36 88 249 282 311 215 178 174 286 198 196 174 222 56 67 297 201 208 215 184 162 169 192 186 352 8 347 346 346 350 358 350 335 332 328 323 324 323 317 300 296 311
91 73 126 110 314 253 241 203 188 134 297 187 170 170 167 156 141 255 183 145 129 130 156 174 155 81 82 281 320 341 329 341 350 340 334 329 318 311 314 308 312 283 285 286
311 358 193 193 245 285 233 184 158 127 236 182 186 186 170 190 202 175 144 135 152 169 163 145 143 137 19 12 19 11 356 343 317 316 313 315 318 316 301 303 302 295 307 311
210 159 215 124 234 289 164 100 174 216 225 199 203 204 200 210 146 153 163 162 168 163 139 87 60 20 12 22 25 351 323 302 305 305 305 304 301 303 301 299 293 302 303 300
255 193 193 186 217 227 207 206 214 168 185 212 201 201 192 176 195 177 185 175 174 128 106 92 58 11 1 14 16 334 308 321 315 312 304 295 292 286 282 279 288 289 279 274
249 169 226 10 250 232 230 230 217 191 215 220 226 181 168 185 183 190 178 172 169 157 133 80 25 354 332 335 317 277 303 312 313 307 307 309 315 316 314 304 285 279 282 285
212 147 212 261 279 277 264 239 215 205 200 175 159 179 191 171 188 180 185 182 181 180 173 52 343 309 298 314 313 306 302 312 313 308 301 295 291 283 295 291 281 287 263 264
185 199 182 227 239 213 265 306 200 190 194 190 164 154 154 168 175 165 179 178 173 193 195 271 293 307 309 317 311 312 319 320 310 304 299 299 303 299 301 297 301 289 294 298